Weather History for KVWU - March, 2014

Change the Weather History Date:

Saturday, March 15, 2014

  Actual Average (KBDE) Record (KBDE)
Temperature  
Mean Temperature 6 °F -  
Max Temperature 17 °F 35 °F 63 °F (2015)
Min Temperature -5 °F 9 °F -27 °F (1956)
Degree Days  
Heating Degree Days 59    
Moisture  
Dew Point -2 °F    
Average Humidity 69    
Maximum Humidity 92    
Minimum Humidity 42    
Precipitation  
Precipitation 0.00 in - - ()
Sea Level Pressure  
Sea Level Pressure 30.25 in    
Wind  
Wind Speed 3 mph (NNW)    
Max Wind Speed 13 mph    
Max Gust Speed 18 mph    
Visibility 10 miles    
Events      
Averages and records for this station are not official NWS values.
T = Trace of Precipitation, MM = Missing Value Source: NWS Daily Summary

Daily Weather History Graph

Daily Weather History Graph

Search for Another Location

Airport or City:

Trip Planner

Search our weather history database for the weather conditions in past years. The results will help you decide how hot, cold, wet, or windy it might be!

Date:

Astronomy

Mar. 15, 2014 Rise Set
Actual Time 7:31 AM CDT 7:23 PM CDT
Civil Twilight 7:00 AM CDT 7:54 PM CDT
Nautical Twilight 6:23 AM CDT 8:30 PM CDT
Astronomical Twilight 5:46 AM CDT 9:08 PM CDT
Moon 6:43 PM CDT (3/15) 6:46 AM CDT (3/15)
Length of Visible Light 12h 54m
Length of Day
11h 52m
Waxing Gibbous, 99% of the Moon is Illuminated
Mar 15
Waxing Gibbous
Mar 16
Full
Mar 23
Last Quarter
Mar 30
New
Apr 7
First Quarter

Hourly Weather History & Observations

Time (CDT) Temp. Windchill Dew Point Humidity Pressure Visibility Wind Dir Wind Speed Gust Speed Precip Events Conditions
12:12 AM 6.8 °F -0.1 °F 3.2 °F 85% 29.97 in 10.0 mi West 3.5 mph - N/A   Clear
12:33 AM 6.8 °F - 3.2 °F 85% 29.98 in 10.0 mi Calm Calm - N/A   Clear
12:52 AM 6.8 °F -0.1 °F 3.2 °F 85% 29.98 in 10.0 mi West 3.5 mph - N/A   Clear
1:12 AM 6.8 °F -0.1 °F 1.4 °F 79% 29.98 in 10.0 mi SW 3.5 mph - N/A   Clear
1:33 AM 3.2 °F - 1.4 °F 92% 29.99 in 10.0 mi Calm Calm - N/A   Clear
1:52 AM 3.2 °F - 1.4 °F 92% 29.99 in 10.0 mi Calm Calm - N/A   Clear
2:12 AM 3.2 °F - -0.4 °F 85% 30.00 in 10.0 mi Calm Calm - N/A   Clear
2:33 AM 1.4 °F -6.2 °F -0.4 °F 92% 30.01 in 10.0 mi WSW 3.5 mph - N/A   Clear
2:52 AM 1.4 °F -6.2 °F -0.4 °F 92% 30.02 in 10.0 mi West 3.5 mph - N/A   Clear
3:12 AM 1.4 °F - -0.4 °F 92% 30.02 in 10.0 mi Calm Calm - N/A   Clear
3:33 AM 1.4 °F - -2.2 °F 85% 30.03 in 10.0 mi Calm Calm - N/A   Clear
3:52 AM -0.4 °F - -4.0 °F 85% 30.03 in 10.0 mi Calm Calm - N/A   Clear
4:12 AM -0.4 °F - -4.0 °F 85% 30.04 in 10.0 mi Calm Calm - N/A   Clear
4:33 AM -0.4 °F - -4.0 °F 85% 30.05 in 10.0 mi Calm Calm - N/A   Clear
4:52 AM -2.2 °F - -5.8 °F 85% 30.06 in 10.0 mi Calm Calm - N/A   Clear
5:12 AM -2.2 °F - -7.6 °F 78% 30.06 in 10.0 mi Calm Calm - N/A   Clear
5:33 AM -4.0 °F - -7.6 °F 85% 30.08 in 10.0 mi Calm Calm - N/A   Clear
5:52 AM -5.8 °F - -7.6 °F 92% 30.09 in 10.0 mi Calm Calm - N/A   Clear
6:12 AM -2.2 °F - -5.8 °F 85% 30.10 in 10.0 mi Calm Calm - N/A   Clear
6:33 AM -5.8 °F - -7.6 °F 92% 30.11 in 10.0 mi Calm Calm - N/A   Clear
6:52 AM -2.2 °F - -5.8 °F 85% 30.13 in 10.0 mi Calm Calm - N/A   Clear
7:12 AM -2.2 °F - -5.8 °F 85% 30.13 in 10.0 mi Calm Calm - N/A   Clear
7:33 AM -0.4 °F -8.3 °F -4.0 °F 85% 30.14 in 10.0 mi North 3.5 mph - N/A   Scattered Clouds
7:52 AM -0.4 °F -8.3 °F -4.0 °F 85% 30.15 in 10.0 mi NNE 3.5 mph - N/A   Scattered Clouds
8:12 AM 1.4 °F -8.3 °F -2.2 °F 85% 30.16 in 10.0 mi North 4.6 mph - N/A   Clear
8:32 AM 1.4 °F -6.2 °F -0.4 °F 92% 30.18 in 10.0 mi NNE 3.5 mph - N/A   Clear
8:52 AM 3.2 °F -6.2 °F -0.4 °F 85% 30.19 in 10.0 mi North 4.6 mph - N/A   Clear
9:12 AM 5.0 °F -2.1 °F -0.4 °F 78% 30.21 in 10.0 mi North 3.5 mph - N/A   Clear
9:33 AM 6.8 °F - 1.4 °F 79% 30.22 in 10.0 mi Calm Calm - N/A   Clear
9:52 AM 8.6 °F - 1.4 °F 73% 30.23 in 10.0 mi Calm Calm - N/A   Clear
10:12 AM 10.4 °F 2.2 °F 1.4 °F 67% 30.24 in 10.0 mi NNW 4.6 mph - N/A   Clear
10:32 AM 10.4 °F 0.8 °F 1.4 °F 67% 30.25 in 10.0 mi NNW 5.8 mph - N/A   Clear
10:52 AM 10.4 °F -0.4 °F 1.4 °F 67% 30.26 in 10.0 mi North 6.9 mph 16.1 mph N/A   Clear
11:12 AM 10.4 °F -3.3 °F -0.4 °F 62% 30.27 in 10.0 mi NNW 10.4 mph - N/A   Clear
11:32 AM 12.2 °F -0.2 °F 1.4 °F 62% 30.27 in 10.0 mi North 9.2 mph - N/A   Clear
11:52 AM 12.2 °F -2.5 °F 1.4 °F 62% 30.27 in 10.0 mi North 12.7 mph 16.1 mph N/A   Clear
12:12 PM 12.2 °F 0.7 °F 1.4 °F 62% 30.28 in 10.0 mi NNE 8.1 mph - N/A   Clear
12:32 PM 14.0 °F -0.2 °F -0.4 °F 53% 30.29 in 10.0 mi NNE 12.7 mph 17.3 mph N/A   Clear
12:52 PM 14.0 °F -0.2 °F -0.4 °F 53% 30.31 in 10.0 mi North 12.7 mph 18.4 mph N/A   Clear
1:12 PM 15.8 °F 5.1 °F -0.4 °F 49% 30.31 in 10.0 mi North 8.1 mph - N/A   Clear
1:32 PM 15.8 °F 6.1 °F -0.4 °F 49% 30.32 in 10.0 mi North 6.9 mph - N/A   Clear
1:52 PM 15.8 °F 3.4 °F -0.4 °F 49% 30.32 in 10.0 mi North 10.4 mph - N/A   Clear
2:12 PM 15.8 °F 4.2 °F 1.4 °F 53% 30.33 in 10.0 mi North 9.2 mph - N/A   Clear
2:32 PM 15.8 °F 5.1 °F 1.4 °F 53% 30.33 in 10.0 mi NNW 8.1 mph - N/A   Clear
2:52 PM 15.8 °F 3.4 °F -0.4 °F 49% 30.34 in 10.0 mi NW 10.4 mph - N/A   Clear
3:13 PM 17.6 °F 5.0 °F 1.4 °F 49% 30.34 in 10.0 mi NNW 11.5 mph - N/A   Clear
3:32 PM 17.6 °F 7.3 °F 1.4 °F 49% 30.34 in 10.0 mi NNW 8.1 mph 17.3 mph N/A   Clear
3:52 PM 17.6 °F 7.3 °F -0.4 °F 45% 30.35 in 10.0 mi NW 8.1 mph 16.1 mph N/A   Clear
4:13 PM 17.6 °F 6.4 °F -0.4 °F 45% 30.36 in 10.0 mi North 9.2 mph - N/A   Clear
4:32 PM 17.6 °F 9.3 °F -0.4 °F 45% 30.37 in 10.0 mi NNW 5.8 mph - N/A   Clear
4:52 PM 17.6 °F 6.4 °F -2.2 °F 42% 30.38 in 10.0 mi NNW 9.2 mph - N/A   Clear
5:13 PM 17.6 °F 8.2 °F -0.4 °F 45% 30.38 in 10.0 mi NNW 6.9 mph - N/A   Clear
5:32 PM 17.6 °F 7.3 °F -0.4 °F 45% 30.39 in 10.0 mi NNW 8.1 mph - N/A   Clear
5:52 PM 15.8 °F 6.1 °F -0.4 °F 49% 30.40 in 10.0 mi NNW 6.9 mph - N/A   Clear
6:13 PM 15.8 °F 6.1 °F -0.4 °F 49% 30.41 in 10.0 mi NNW 6.9 mph - N/A   Clear
6:32 PM 14.0 °F 3.9 °F -0.4 °F 53% 30.42 in 10.0 mi NNW 6.9 mph - N/A   Clear
6:52 PM 14.0 °F 5.1 °F -0.4 °F 53% 30.42 in 10.0 mi NNW 5.8 mph - N/A   Clear
7:13 PM 12.2 °F 4.3 °F -0.4 °F 57% 30.43 in 10.0 mi NNW 4.6 mph - N/A   Clear
7:32 PM 10.4 °F -0.4 °F -2.2 °F 57% 30.44 in 10.0 mi NW 6.9 mph - N/A   Clear
7:52 PM 8.6 °F 0.1 °F -0.4 °F 67% 30.45 in 10.0 mi NW 4.6 mph - N/A   Clear
8:13 PM 8.6 °F 0.1 °F -2.2 °F 62% 30.46 in 10.0 mi NNW 4.6 mph - N/A   Clear
8:32 PM 8.6 °F 0.1 °F -2.2 °F 62% 30.46 in 10.0 mi North 4.6 mph - N/A   Clear
8:52 PM 6.8 °F -2.0 °F -2.2 °F 67% 30.47 in 10.0 mi North 4.6 mph - N/A   Clear
9:12 PM 6.8 °F -3.5 °F -2.2 °F 67% 30.47 in 10.0 mi North 5.8 mph - N/A   Clear
9:32 PM 5.0 °F -4.1 °F -4.0 °F 66% 30.47 in 10.0 mi North 4.6 mph - N/A   Clear
9:52 PM 5.0 °F -2.1 °F -4.0 °F 66% 30.47 in 10.0 mi North 3.5 mph - N/A   Clear
10:12 PM 3.2 °F - -4.0 °F 72% 30.47 in 10.0 mi Calm Calm - N/A   Clear
10:32 PM 3.2 °F - -4.0 °F 72% 30.48 in 10.0 mi Calm Calm - N/A   Clear
10:52 PM 3.2 °F - -5.8 °F 66% 30.48 in 10.0 mi Calm Calm - N/A   Clear
11:12 PM 1.4 °F - -5.8 °F 72% 30.48 in 10.0 mi Calm Calm - N/A   Clear
11:32 PM -0.4 °F - -7.6 °F 72% 30.48 in 10.0 mi Calm Calm - N/A   Clear
11:52 PM -2.2 °F - -7.6 °F 78% 30.49 in 10.0 mi Calm Calm - N/A   Clear